Tracking 18850 objects as of 22-Nov-2017
HD Live streaming from Space Station
objects crossing your sky now

FENGYUN 1C DEB

Track FENGYUN 1C DEB now!
10-day predictions


NORAD ID: 30936
Int'l Code: 1999-025BAA
Perigee: 801.5 km
Apogee: 875.0 km
Inclination: 98.9 °
Period: 101.5 minutes
Semi major axis: 7209 km
RCS: 0.0141 m2 (small)
Launch date: May 10, 1999
Source: People's Republic of China (PRC)
Launch site: Taiyaun Space Center, China (TSC)

Note: This is SATELLITE DEBRIS
aabbcc
Your satellite tracking list
Your tracking list is empty




NASA's NSSDC Master Catalog

Two Line Element Set (TLE):
1 30936U 99025BAA 17326.03404846  .00000310  00000-0  16983-3 0  9998
2 30936  98.9036 350.7660 0050939 115.8292 274.0772 14.18293553554069
Source of the keplerian elements: AFSPC